カタログに戻る

STARLINK-6088

運用中通信VLEO
NORAD 56098·PAYLOAD·🇺🇸 United States

打ち上げ Mar 29, 2023 から Cape Canaveral Space Force Station

Loading…

次のパス (今後24時間)

TLE

最新Source: CelesTrak SupGP

元期: Sep 15, 2026, 01:25 UTC

1 56098C 23046F   26258.05951389 -.00003990  00000+0 -14456-3 0  2589
2 56098  42.9997 171.8719 0001296 261.8745 179.8308 15.27574635    17

AllMySatでSTARLINK-6088をリアルタイム追跡

Download on the App Store